Other Public Products
Issued by NWS Grand Forks, ND

Home | Current Version | Previous Version | Graphics & Text | Print | Product List | Glossary On
Versions: 1 2 3 4 5 6 7 8 9 10 11 12 13 14 15 16 17 18 19 20 21 22 23 24 25 26 27 28 29 30 31 32 33 34 35 36 37 38 39 40 41 42 43 44 45 46 47 48 49 50
000
FPUS83 KFGF 291310
OPUFGF
PRAIRIE TO PINES WEATHER ROUNDUP
NATIONAL WEATHER SERVICE EASTERN NORTH DAKOTA/GRAND FORKS ND
800 AM CDT FRI AUG 29 2014

 **SATELLITE DATA USED TO AUGMENT SKY COVER AT AUTOMATED STATIONS**
 *****  WEATHER ACROSS EASTERN NORTH DAKOTA  *****

CITY           SKY/WX    TMP DP  RH WIND       PRES   REMARKS
GRAND FORKS    CLOUDY    66  64  93 CALM      29.77R
GRAND FORKS AF CLOUDY    66  66 100 S2        29.77S
GRAND CITY NWS   N/A     64 N/A N/A MISG        N/A
BUXTON         NOT AVBL
DEVILS LAKE    CLOUDY    66  61  82 SW10      29.74F
FARGO          CLOUDY    66  65  96 W5        29.77S FOG
WAHPETON ARPT  CLOUDY    64  63  94 CALM      29.78S VSB 1/2
$$

 *****  WEATHER ACROSS CENTRAL AND WESTERN NORTH DAKOTA  *****

CITY           SKY/WX    TMP DP  RH WIND       PRES   REMARKS
JAMESTOWN      FOG       64  63  96 SW5       29.78S VSB 1/2
BISMARCK       PTCLDY    66  63  90 W6        29.81F
MINOT          MOCLDY    61  56  83 W15       29.81R
MINOT AFB      CLOUDY    62  61  99 NW17      29.80R
GARRISON         N/A     60  57  89 NW8       29.81S
WILLISTON      CLOUDY    60  55  83 NW8       29.93R
DICKINSON      MOCLDY    61  55  81 NW15      29.92R
HETTINGER      CLOUDY    61  57  87 NW12      29.93R
$$

 *****  OTHER OBSERVATIONS NORTHEAST NORTH DAKOTA  *****

CITY           SKY/WX    TMP DP  RH WIND       PRES   REMARKS
WALHALLA         N/A     66  66 100 S8        29.75S
LANGDON        CLOUDY    64  64 100 SW7       29.76S FOG
CAVALIER       CLOUDY    66  64  94 S5        29.75S FOG
GRAFTON        CLOUDY    64  64 100 SE6       29.75F
CANDO          CLOUDY    64  64 100 S7        29.76R
FORT TOTTEN    NOT AVBL
ROLLA          CLOUDY    64  64 100 CALM      29.77R
RUGBY          CLOUDY    64  64 100 NW5       29.75S
 ***** THE ABOVE OBSERVATIONS ARE NON NWS ARE NOT QUALITY
        CONTROLLED AND MAY MIS-REPORT RAIN FOR SNOW...
$$

 *****  OTHER OBSERVATIONS SOUTHEAST NORTH DAKOTA *****

CITY           SKY/WX    TMP DP  RH WIND       PRES   REMARKS
COOPERSTOWN    NOT AVBL
VALLEY CITY    FOG       64  64 100 CALM      29.79S VSB 1/4
OAKES          FOG       64  64 100 NW5       29.79S VSB 1/4
GWINNER        CLOUDY    64  64 100 NW3       29.80S
BUFFALO        NOT AVBL
WYNDMERE       NOT AVBL
 ***** THE ABOVE OBSERVATIONS ARE NON NWS ARE NOT QUALITY
       CONTROLLED AND MAY MIS-REPORT RAIN FOR SNOW...
$$

  *****  WEATHER ACROSS NORTHERN MINNESOTA  *****

CITY           SKY/WX    TMP DP  RH WIND       PRES   REMARKS
FLAG ISLAND    PTSUNNY   64  63  94 CALM      29.78S
WARROAD        CLOUDY    64  61  88 CALM      29.80F
ROSEAU         PTSUNNY   66  61  82 CALM      29.79S
HALLOCK        CLOUDY    66  64  94 S5        29.75F FOG
THF RVR FALLS  CLOUDY    63  63 100 SE3       29.79S
HALSTAD          N/A     65  64  97 CALM        N/A
FOSSTON        CLOUDY    63  61  94 CALM      29.80F FOG
BAUDETTE       CLOUDY    64  61  90 CALM      29.81S
WASKISH        CLOUDY    64  63  94 CALM      29.80F FOG
CROOKSTON      CLOUDY    64  63  94 CALM      29.78S
$$
  *****  WEATHER ACROSS CENTRAL AND WEST MINNESOTA  *****

CITY           SKY/WX    TMP DP  RH WIND       PRES   REMARKS
BEMIDJI        CLOUDY    63  63  99 SE3       29.80F FOG
PARK RAPIDS    CLOUDY    64  63  96 SE6       29.80R FOG
WADENA         FOG       63  63 100 CALM      29.79S VSB<1/4
DETROIT LAKES    N/A    N/A N/A N/A MISG      29.80S
MOORHEAD       FOG       66  66 100 CALM      29.78S VSB 1/4
FERGUS FALLS   DRZL/FOG  64  64 100 CALM      29.78S VSB 1/4
ELBOW LAKE     CLOUDY    64  64  99 CALM      29.78S
MORRIS MN      TSTM      66  64  94 CALM      29.78R VSB 1/2
STAPLES        CLOUDY    63  63 100 CALM      29.80R FOG
WHEATON        CLOUDY    63  63 100 CALM      29.79F FOG
$$
  *****  WEATHER ELSEWHERE ACROSS MINNESOTA  *****

CITY           SKY/WX    TMP DP  RH WIND       PRES   REMARKS
DULUTH         DRZL/FOG  61  59  93 SE10      29.83S VSB 1/2
INTRNTL FALLS  CLOUDY    61  60  97 SE3       29.83F
ELY            RAIN      61  57  88 E3        29.86F
CLOQUET        LGT RAIN  63  61  94 SE5       29.82F
BRAINERD       LGT RAIN  63  63 100 CALM      29.80S FOG
HIBBING        LGT RAIN  61  59  93 E5        29.83F FOG
ALEXANDRIA     RAIN      65  64  97 E6        29.80S VSB 1/2
SAINT CLOUD    CLOUDY    68  66  93 E5        29.77F
MINNEAPOLIS    CLOUDY    69  68  96 SE8       29.80F
$$

  *****  WEATHER ACROSS SOUTH DAKOTA  *****

CITY           SKY/WX    TMP DP  RH WIND       PRES   REMARKS
SIOUX FALLS    CLOUDY    69  66  90 VRB5      29.79S
BROOKINGS      NOT AVBL
WATERTOWN      FOG       66  65  96 CALM      29.79R VSB 1/4
HURON          CLOUDY    68  67  96 N6        29.78S FOG
SISSETON         N/A     66  66 100 CALM      29.78R
ABERDEEN       CLOUDY    64  64 100 NW9       29.79F
MITCHELL       FOG       69  69 100 NW3       29.80R VSB 3/4
PIERRE         FOG       65  65 100 NW6       29.82S VSB 1/4
MOBRIDGE       FOG       62  62 100 S5        29.80S VSB<1/4
RAPID CITY     PTCLDY    67  50  54 N21G38    29.95R
$$

  *****  SOME WEATHER IN NEARBY STATES *****

CITY           SKY/WX    TMP DP  RH WIND       PRES   REMARKS
GLASGOW MT     CLOUDY    56  54  93 NW8       30.03R
GREAT FALLS MT CLEAR     49  48  97 E8        30.08R
CHEYENNE WY    PTCLDY    54  43  66 W9        30.12R
SCOTTSBLUFF NE PTCLDY    52  51  97 NW9       30.00R
OMAHA NE       LGT RAIN  72  69  90 SE6       29.80F FOG
DES MOINES IA  MOSUNNY   70  68  93 SE8       29.84F FOG
DAVENPORT IA   MOSUNNY   71  67  87 S3        29.93S
CHICAGO IL     CLOUDY    72  64  76 S9        29.98S
EAU CLAIRE WI  CLOUDY    62  62 100 CALM      29.86R
LA CROSSE WI   CLOUDY    67  64  90 E6        29.86F
$$

  *****  SOME NATIONAL WEATHER *****

CITY           SKY/WX    TMP DP  RH WIND       PRES   REMARKS
LA GUARDIA NY  PTSUNNY   67  52  58 N9        30.18R
RALEIGH NC     CLOUDY    74  68  81 NE8       30.13R
ATLANTA GA     MOSUNNY   77  60  55 CALM      30.08S
NEW ORLEANS LA PTSUNNY   83  75  77 E7        29.92F HX  90
OKLAHOMA CITY  CLOUDY    68  65  90 SW5       29.93R
ALBUQUERQUE NM CLEAR     64  43  46 N7        30.18R
SALT LAKE CITY PTCLDY    61  49  64 SE8       30.08S
LOS ANGELES CA CLEAR     67  63  87 CALM      29.88R
BOISE ID       CLEAR     62  38  40 S6        29.98R
SEATTLE WA     CLOUDY    60  56  86 S3        29.99S
$$

*** WEATHER ACROSS MANITOBA...SASKATCHEWAN AND ONTARIO ***
                ***ONTARIO***

CITY           SKY/WX    TMP DP  RH WIND       PRES   REMARKS
GERALDTON      CLOUDY    55  54  94 SW6       29.93S
THUNDER BAY    CLOUDY    59  55  88 VRB2      29.92F
SIOUX LOOKOUT  CLOUDY    63  59  88 S8        29.83S
TORONTO        PTSUNNY   61  52  72 N3        30.20S
BIG TROUT LK   PTSUNNY   59  55  88 N7        29.71R
PICKLE LAKE    LGT RAIN  63  61  94 SW10      29.80R
DRYDEN         CLOUDY    63  61  94 SW8       29.83R
KENORA         CLOUDY    64  63  94 SW5       29.80F
$$
                *** MANITOBA***

CITY           SKY/WX    TMP DP  RH WIND       PRES   REMARKS
BRANDON        CLOUDY    61  57  88 N13G18    29.84R
DAUPHIN        LGT RAIN  57  54  88 N6        29.90R
ISLAND LAKE    NOT AVBL
PILOT MOUND      N/A     64  64 100 S3          N/A
THE PAS        PTCLDY    54  46  76 NW13      29.93R
THOMPSON       DRIZZLE  N/A N/A N/A N10         N/A
WINNIPEG       CLOUDY    68  64  88 SE8       29.76S
LYNN LAKE      MOCLDY    46  43  87 MISG      29.91R
CHURCHILL      PTSUNNY   48  43  81 NW15G23   29.72R
GILLAM         CLOUDY    52  50  93 N10       29.74R
$$
                ***SASKATCHEWAN***

CITY           SKY/WX    TMP DP  RH WIND       PRES   REMARKS
ESTEVAN        NOT AVBL
KINDERSLEY     CLEAR     41  41 100 SE5       30.05S
LLOYDMINSTER   PTCLDY    45  41  87 S6        29.99F
PRINCE ALBERT  CLEAR     37  37 100 W2        30.04R
REGINA         PTCLDY    59 N/A N/A NW6         N/A
YORKTON        CLEAR     52  48  87 NW9       29.96R


USA.gov is the U.S. government's official web portal to all federal, state and local government web resources and services.